User: anonymous   Login
Location: *
(31.2983°S, 151.4094°E)
Time: 03:03:25
(UTC+00:00)
Language:

Cosmos 2297 - Orbit

View from above orbital plane
View from above orbital plane
View from above satellite
View from above satellite

Ground track
Ground track

The orbit data is extracted from the following two-line orbital elements,

1 23404U 94077A   19294.56239812 +.00000176 +00000-0 +11870-3 0  9995
2 23404 071.0108 300.2686 0017324 285.4069 074.5139 14.13519814285087
Epoch (UTC): 21 October 2019 13:29:51
Eccentricity: 0.0017324
inclination: 71.0108°
perigee height: 835 km
apogee height: 860 km
right ascension of ascending node: 300.2686°
argument of perigee: 285.4069°
revolutions per day: 14.13519814
mean anomaly at epoch: 74.5139°
orbit number at epoch: 28508

The dashed part of the orbit path shows where the satellite is in the earth's shadow,  

DLR